Anvik, AK

4:43 PM AKDT on May 25, 2017 (GMT -0800)
Anvik

Weather History for PANV - May, 2013

Change the Weather History Date:

Sunday, May 26, 2013

  Actual Average Record
Temperature  
Mean Temperature 56 °F -  
Max Temperature 66 °F 53 °F 75 °F (2011)
Min Temperature 46 °F 37 °F 28 °F (1999)
Degree Days  
Heating Degree Days 9    
Growing Degree Days 6 (Base 50)    
Moisture  
Dew Point 36 °F    
Average Humidity 49    
Maximum Humidity 66    
Minimum Humidity 34    
Precipitation  
Precipitation 0.00 in - - ()
Sea Level Pressure  
Sea Level Pressure 29.81 in    
Wind  
Wind Speed 6 mph (SE)    
Max Wind Speed 9 mph    
Max Gust Speed 16 mph    
Visibility 10 miles    
Events      
Averages and records for this station are not official NWS values.
T = Trace of Precipitation, MM = Missing Value Source: NWS Daily Summary

Daily Weather History Graph

Daily Weather History Graph

Search for Another Location

Airport or City:

Trip Planner

Search our weather history database for the weather conditions in past years. The results will help you decide how hot, cold, wet, or windy it might be!

Date:

Astronomy

May. 26, 2013 Rise Set
Actual Time 5:11 AM AKDT 12:06 AM AKDT
Civil Twilight 3:03 AM AKDT 2:05 AM AKDT
Nautical Twilight Sun does not set Sun does not set
Astronomical Twilight Sun does not set Sun does not set
Moon 12:54 AM AKDT 7:04 AM AKDT
Length of Visible Light 23h 01m
Length of Day
18h 55m
Waning Gibbous, 96% of the Moon is Illuminated
May 26
Waning Gibbous
May 31
Last Quarter
Jun 8
New
Jun 16
First Quarter
Jun 23
Full

Hourly Weather History & Observations

Time (AKDT) Temp. Windchill Dew Point Humidity Pressure Visibility Wind Dir Wind Speed Gust Speed Precip Events Conditions
12:16 AM 57.2 °F - 35.6 °F 44% 29.77 in 10.0 mi SSE 4.6 mph - N/A   Clear
12:36 AM 57.2 °F - 35.6 °F 44% 29.77 in 10.0 mi SSE 5.8 mph - N/A   Clear
12:56 AM 55.4 °F - 35.6 °F 47% 29.78 in 10.0 mi SSE 4.6 mph - N/A   Clear
1:16 AM 55.4 °F - 35.6 °F 47% 29.78 in 10.0 mi SE 4.6 mph - N/A   Clear
1:36 AM 55.4 °F - 35.6 °F 47% 29.79 in 10.0 mi SE 5.8 mph - N/A   Clear
1:56 AM 53.6 °F - 35.6 °F 51% 29.79 in 10.0 mi SE 6.9 mph - N/A   Clear
2:16 AM 51.8 °F - 35.6 °F 54% 29.80 in 10.0 mi SSE 9.2 mph - N/A   Clear
2:36 AM 51.8 °F - 35.6 °F 54% 29.80 in 10.0 mi SSE 9.2 mph - N/A   Clear
2:56 AM 51.8 °F - 35.6 °F 54% 29.80 in 10.0 mi SSE 6.9 mph - N/A   Clear
3:16 AM 51.8 °F - 35.6 °F 54% 29.80 in 10.0 mi SSE 8.1 mph - N/A   Clear
3:36 AM 50.0 °F - 35.6 °F 58% 29.81 in 10.0 mi SSE 6.9 mph - N/A   Clear
3:56 AM 48.2 °F - 35.6 °F 62% 29.81 in 10.0 mi South 5.8 mph - N/A   Clear
4:16 AM 48.2 °F - 35.6 °F 62% 29.81 in 10.0 mi SSE 8.1 mph - N/A   Clear
4:36 AM 48.2 °F - 35.6 °F 62% 29.81 in 10.0 mi SSE 6.9 mph - N/A   Clear
4:56 AM 48.2 °F - 35.6 °F 62% 29.81 in 10.0 mi SE 6.9 mph - N/A   Clear
5:16 AM 46.4 °F 42.9 °F 35.6 °F 66% 29.81 in 10.0 mi SE 6.9 mph - N/A   Clear
5:36 AM 46.4 °F 43.5 °F 35.6 °F 66% 29.82 in 10.0 mi ESE 5.8 mph - N/A   Clear
5:56 AM 46.4 °F 42.9 °F 35.6 °F 66% 29.82 in 10.0 mi ESE 6.9 mph - N/A   Clear
6:16 AM 46.4 °F 42.4 °F 35.6 °F 66% 29.82 in 10.0 mi SE 8.1 mph - N/A   Clear
6:36 AM 46.4 °F 43.5 °F 35.6 °F 66% 29.82 in 10.0 mi ESE 5.8 mph - N/A   Clear
6:56 AM 46.4 °F 43.5 °F 35.6 °F 66% 29.82 in 10.0 mi ESE 5.8 mph - N/A   Clear
7:16 AM 46.4 °F 42.9 °F 35.6 °F 66% 29.82 in 10.0 mi SE 6.9 mph - N/A   Clear
7:36 AM 46.4 °F 42.9 °F 35.6 °F 66% 29.83 in 10.0 mi SE 6.9 mph - N/A   Clear
7:56 AM 46.4 °F 42.9 °F 35.6 °F 66% 29.83 in 10.0 mi ENE 6.9 mph - N/A   Clear
8:16 AM 46.4 °F 43.5 °F 35.6 °F 66% 29.83 in 10.0 mi ESE 5.8 mph - N/A   Clear
8:36 AM 48.2 °F - 35.6 °F 62% 29.83 in 10.0 mi East 8.1 mph - N/A   Clear
8:56 AM 48.2 °F - 35.6 °F 62% 29.84 in 10.0 mi ESE 5.8 mph - N/A   Clear
9:16 AM 50.0 °F - 35.6 °F 58% 29.84 in 10.0 mi ESE 8.1 mph - N/A   Clear
9:36 AM 51.8 °F - 35.6 °F 54% 29.84 in 10.0 mi SE 9.2 mph - N/A   Clear
9:56 AM 51.8 °F - 35.6 °F 54% 29.84 in 10.0 mi SE 8.1 mph - N/A   Clear
10:16 AM 53.6 °F - 37.4 °F 54% 29.84 in 10.0 mi SSE 6.9 mph - N/A   Clear
10:36 AM 53.6 °F - 35.6 °F 51% 29.84 in 10.0 mi South 8.1 mph 16.1 mph N/A   Clear
10:56 AM 53.6 °F - 35.6 °F 51% 29.84 in 10.0 mi SSW 9.2 mph - N/A   Clear
11:16 AM 55.4 °F - 35.6 °F 47% 29.84 in 10.0 mi South 8.1 mph - N/A   Clear
11:36 AM 55.4 °F - 35.6 °F 47% 29.84 in 10.0 mi South 9.2 mph - N/A   Clear
11:56 AM 57.2 °F - 37.4 °F 48% 29.84 in 10.0 mi South 8.1 mph - N/A   Clear
12:16 PM 55.4 °F - 35.6 °F 47% 29.84 in 10.0 mi ESE 5.8 mph - N/A   Clear
12:56 PM 57.2 °F - 37.4 °F 48% 29.84 in 10.0 mi ESE 6.9 mph - N/A   Clear
1:16 PM 59.0 °F - 35.6 °F 42% 29.83 in 10.0 mi SE 5.8 mph - N/A   Clear
1:56 PM 60.8 °F - 37.4 °F 42% 29.83 in 10.0 mi South 8.1 mph - N/A   Clear
2:16 PM 60.8 °F - 35.6 °F 39% 29.84 in 10.0 mi South 6.9 mph - N/A   Clear
2:36 PM 62.6 °F - 35.6 °F 37% 29.83 in 10.0 mi South 6.9 mph - N/A   Clear
3:16 PM 62.6 °F - 35.6 °F 37% 29.83 in 10.0 mi SSE 6.9 mph - N/A   Clear
3:56 PM 62.6 °F - 35.6 °F 37% 29.82 in 10.0 mi WSW 6.9 mph - N/A   Clear
4:16 PM 62.6 °F - 35.6 °F 37% 29.82 in 10.0 mi SE 5.8 mph - N/A   Clear
4:36 PM 64.4 °F - 37.4 °F 37% 29.82 in 10.0 mi South 6.9 mph - N/A   Clear
5:16 PM 64.4 °F - 37.4 °F 37% 29.82 in 10.0 mi ESE 6.9 mph - N/A   Clear
5:36 PM 64.4 °F - 37.4 °F 37% 29.81 in 10.0 mi ESE 8.1 mph - N/A   Clear
5:56 PM 64.4 °F - 37.4 °F 37% 29.81 in 10.0 mi South 4.6 mph - N/A   Clear
6:16 PM 64.4 °F - 37.4 °F 37% 29.81 in 10.0 mi SE 5.8 mph - N/A   Clear
6:56 PM 64.4 °F - 37.4 °F 37% 29.81 in 10.0 mi NNE 4.6 mph - N/A   Clear
7:36 PM 66.2 °F - 37.4 °F 35% 29.80 in 10.0 mi South 4.6 mph - N/A   Clear
8:16 PM 64.4 °F - 37.4 °F 37% 29.79 in 10.0 mi Calm Calm - N/A   Clear
8:36 PM 64.4 °F - 37.4 °F 37% 29.79 in 10.0 mi NNE 4.6 mph - N/A   Clear
8:56 PM 66.2 °F - 37.4 °F 35% 29.79 in 10.0 mi Calm Calm - N/A   Clear
9:16 PM 66.2 °F - 37.4 °F 35% 29.79 in 10.0 mi North 4.6 mph - N/A   Clear
9:36 PM 64.4 °F - 37.4 °F 37% 29.79 in 10.0 mi NW 4.6 mph - N/A   Clear
9:56 PM 66.2 °F - 37.4 °F 35% 29.80 in 8.0 mi Calm Calm - N/A   Clear
10:16 PM 64.4 °F - 35.6 °F 34% 29.80 in 10.0 mi Calm Calm - N/A   Clear
10:36 PM 64.4 °F - 35.6 °F 34% 29.80 in 10.0 mi Calm Calm - N/A   Clear
10:56 PM 64.4 °F - 35.6 °F 34% 29.80 in 10.0 mi Calm Calm - N/A   Clear
11:16 PM 64.4 °F - 35.6 °F 34% 29.80 in 10.0 mi Calm Calm - N/A   Clear
11:56 PM 62.6 °F - 35.6 °F 37% 29.81 in 10.0 mi NNW 5.8 mph - N/A   Clear